Weather History for KBWG - October, 2013

Change the Weather History Date:

Tuesday, October 22, 2013

  Actual Average Record
Temperature  
Mean Temperature 52 °F 57 °F  
Max Temperature 60 °F 69 °F 88 °F (1947)
Min Temperature 44 °F 44 °F 23 °F (1987)
Degree Days  
Heating Degree Days 13 9  
Month to date heating degree days 114 136  
Since 1 July heating degree days 126 172  
Cooling Degree Days 0 1  
Month to date cooling degree days 43 31  
Year to date cooling degree days 1495 1486  
Growing Degree Days 2 (Base 50)    
Moisture  
Dew Point 42 °F    
Average Humidity 67    
Maximum Humidity 93    
Minimum Humidity 40    
Precipitation  
Precipitation 0.16 in 0.11 in 3.29 in (2007)
Month to date precipitation 2.80 2.37  
Year to date precipitation 50.59 39.86  
Snow  
Snow 0.00 in 0.00 in 0.00 in ()
Month to date snowfall 0.0 0.0  
Since 1 July snowfall 0.0 0.0  
Since 1 September snowfall 0.0 0.0  
Snow Depth 0.00 in    
Sea Level Pressure  
Sea Level Pressure 29.99 in    
Wind  
Wind Speed 4 mph (West)    
Max Wind Speed 22 mph    
Max Gust Speed 28 mph    
Visibility 9 miles    
Events Rain    
T = Trace of Precipitation, MM = Missing Value Source: NWS Daily Summary

Daily Weather History Graph

Daily Weather History Graph

Search for Another Location

Airport or City:

Trip Planner

Search our weather history database for the weather conditions in past years. The results will help you decide how hot, cold, wet, or windy it might be!

Date:

Astronomy

Oct. 22, 2013 Rise Set
Actual Time 7:00 AM CDT 5:59 PM CDT
Civil Twilight 6:33 AM CDT 6:25 PM CDT
Nautical Twilight 6:03 AM CDT 6:56 PM CDT
Astronomical Twilight 5:33 AM CDT 7:26 PM CDT
Moon 8:43 PM CDT (10/22) 10:24 AM CDT (10/22)
Length of Visible Light 11h 52m
Length of Day
10h 59m
Waning Gibbous, 86% of the Moon is Illuminated
Oct 22
Waning Gibbous
Oct 26
Last Quarter
Nov 3
New
Nov 9
First Quarter
Nov 17
Full

Hourly Weather History & Observations

Time (CDT) Temp. Windchill Dew Point Humidity Pressure Visibility Wind Dir Wind Speed Gust Speed Precip Events Conditions
12:53 AM 53.1 °F - 50.0 °F 89% 30.02 in 9.0 mi NW 3.5 mph - 0.00 in Rain Light Rain
1:27 AM 51.8 °F - 48.2 °F 88% 30.04 in 5.0 mi NW 5.8 mph - 0.04 in Rain Rain
1:33 AM 51.8 °F - 50.0 °F 94% 30.04 in 5.0 mi WNW 3.5 mph - 0.04 in Rain Light Rain
1:53 AM 51.1 °F - 48.0 °F 89% 30.04 in 9.0 mi Variable 6.9 mph - 0.05 in Rain Light Rain
2:53 AM 48.9 °F - 46.9 °F 93% 30.05 in 7.0 mi NNW 5.8 mph - 0.02 in Rain Light Rain
3:36 AM 48.2 °F - 46.4 °F 93% 30.05 in 5.0 mi North 5.8 mph - 0.03 in Rain Rain
3:53 AM 48.0 °F - 46.0 °F 93% 30.05 in 6.0 mi NNW 5.8 mph - 0.05 in Rain Light Rain
4:07 AM 48.2 °F - 44.6 °F 87% 30.06 in 7.0 mi Variable 5.8 mph - 0.01 in Rain Light Rain
4:36 AM 46.4 °F 45.2 °F 44.6 °F 93% 30.06 in 8.0 mi Variable 3.5 mph - 0.02 in Rain Light Rain
4:53 AM 46.9 °F - 44.1 °F 90% 30.06 in 10.0 mi NNW 3.5 mph - 0.02 in   Overcast
5:53 AM 46.9 °F - 43.0 °F 86% 30.06 in 10.0 mi Calm Calm - 0.00 in   Overcast
6:53 AM 45.0 °F - 42.1 °F 90% 30.06 in 10.0 mi Calm Calm - N/A   Mostly Cloudy
7:53 AM 45.0 °F - 42.1 °F 90% 30.08 in 10.0 mi Calm Calm - N/A   Clear
8:53 AM 48.0 °F - 42.1 °F 80% 30.08 in 10.0 mi NE 5.8 mph - N/A   Partly Cloudy
9:53 AM 48.9 °F - 39.0 °F 69% 30.08 in 10.0 mi ESE 6.9 mph - N/A   Clear
10:53 AM 51.1 °F - 35.1 °F 54% 30.06 in 10.0 mi East 8.1 mph - N/A   Clear
11:53 AM 54.0 °F - 35.1 °F 49% 30.03 in 10.0 mi Variable 3.5 mph - N/A   Clear
12:53 PM 55.0 °F - 35.1 °F 47% 29.99 in 10.0 mi Calm Calm - N/A   Clear
1:53 PM 55.9 °F - 35.1 °F 45% 29.95 in 10.0 mi Calm Calm - N/A   Clear
2:53 PM 57.9 °F - 36.0 °F 44% 29.92 in 10.0 mi South 4.6 mph - N/A   Clear
3:53 PM 59.0 °F - 35.1 °F 41% 29.90 in 10.0 mi SSW 5.8 mph - N/A   Clear
4:53 PM 57.9 °F - 33.1 °F 39% 29.90 in 10.0 mi SSW 4.6 mph - N/A   Clear
5:53 PM 57.0 °F - 35.1 °F 44% 29.89 in 10.0 mi South 3.5 mph - N/A   Clear
6:53 PM 53.1 °F - 39.0 °F 59% 29.89 in 10.0 mi Calm Calm - N/A   Scattered Clouds
7:53 PM 51.1 °F - 42.1 °F 71% 29.89 in 10.0 mi Calm Calm - N/A   Mostly Cloudy
8:53 PM 52.0 °F - 42.1 °F 69% 29.89 in 10.0 mi WSW 4.6 mph - N/A   Mostly Cloudy
9:53 PM 52.0 °F - 44.1 °F 74% 29.88 in 10.0 mi SSW 3.5 mph - N/A   Overcast
10:53 PM 50.0 °F - 44.1 °F 80% 29.86 in 10.0 mi SSW 5.8 mph - N/A   Clear
11:53 PM 52.0 °F - 43.0 °F 71% 29.87 in 10.0 mi West 19.6 mph 27.6 mph 0.00 in Rain Light Rain